Location: Milevsko
(49.4500°N, 14.3670°E)
Time: 09:31:56
(UTC+02:00)

ISS - Pass Details

Date: 21 July 2018
Orbit: 402 x 408 km, 51.6° (Epoch: 17 July)

Event Time Altitude Azimuth Distance (km) Brightness Sun altitude
Rises 02:58:36 0° 289° (WNW) 2,330 -0.1 -15.9°
Reaches altitude 10° 03:00:41 10° 287° (WNW) 1,468 -1.1 -15.8°
Maximum altitude 03:03:58 68° 203° (SSW) 440 -4.0 -15.5°
Drops below altitude 10° 03:07:14 10° 120° (ESE) 1,465 -1.0 -15.3°
Sets 03:09:19 0° 118° (ESE) 2,323 0.0 -15.1°
